This is the latest recevied weather packets stored in our database for station/object DH1NAI-6. If no packets are shown the sender has not sent any weather packets the latest 10 day(s).
| Time | Temp. | Humidity | Pressure | Rain* | Wind** | Luminosity | Snow |
|---|---|---|---|---|---|---|---|
| 1787842341 | 26.67° C | 54% | 1014.4 hPa | 0 mm | - | 80 W/m² | - |
| 1787841717 | 26.67° C | 54% | 1014.1 hPa | 0 mm | - | 117 W/m² | - |
| 1787841093 | 26.67° C | 56% | 1014.1 hPa | 0 mm | - | 109 W/m² | - |
| 1787840485 | 25.56° C | 58% | 1014 hPa | 0 mm | - | 80 W/m² | - |
| 1787839877 | 26.11° C | 56% | 1014.1 hPa | 0 mm | - | 77 W/m² | - |
| 1787839269 | 26.11° C | 58% | 1014 hPa | 0 mm | - | 103 W/m² | - |
| 1787838661 | 26.11° C | 56% | 1013.9 hPa | 0 mm | - | 119 W/m² | - |
| 1787838053 | 26.67° C | 58% | 1014.1 hPa | 0 mm | - | 103 W/m² | - |
| 1787837445 | 26.11° C | 61% | 1014.1 hPa | 0 mm | - | 126 W/m² | - |
| 1787836831 | 25.56° C | 62% | 1014.1 hPa | 0 mm | - | 150 W/m² | - |
| 1787836229 | 25.56° C | 59% | 1014 hPa | 0 mm | - | 147 W/m² | - |
| 1787835621 | 26.11° C | 64% | 1014.5 hPa | 0 mm | - | 134 W/m² | - |
| 1787834997 | 25.56° C | 62% | 1014.1 hPa | 0 mm | - | 143 W/m² | - |
| 1787834373 | 25.56° C | 64% | 1014.1 hPa | 0 mm | - | 149 W/m² | - |
| 1787833765 | 25.56° C | 61% | 1014.4 hPa | 0 mm | - | 128 W/m² | - |
| 1787833141 | 25.56° C | 64% | 1014.5 hPa | 0 mm | - | 174 W/m² | - |
| 1787832517 | 25° C | 64% | 1014.7 hPa | 0 mm | - | 155 W/m² | - |
| 1787831909 | 24.44° C | 63% | 1014.7 hPa | 0 mm | - | 168 W/m² | - |
| 1787831301 | 25° C | 66% | 1014.7 hPa | 0 mm | - | 162 W/m² | - |
| 1787830693 | 23.89° C | 67% | 1014.8 hPa | 0 mm | - | 176 W/m² | - |
| 1787830085 | 24.44° C | 69% | 1014.8 hPa | 0 mm | - | 115 W/m² | - |
| 1787829477 | 23.33° C | 68% | 1014.9 hPa | 0 mm | - | 149 W/m² | - |
| 1787828869 | 24.44° C | 69% | 1015 hPa | 0 mm | - | 164 W/m² | - |
| 1787828261 | 23.89° C | 66% | 1015.2 hPa | 0 mm | - | 173 W/m² | - |
| 1787827653 | 23.33° C | 68% | 1015 hPa | 0 mm | - | 171 W/m² | - |
* Rain latest hour (hover to see other rain measurements)
** Current wind speed in m/s (hover to see current wind gust speed)